{"data":{"norad_id":53692,"epoch":"2026-09-20T22:35:27.450816Z","epoch_age_seconds":43158,"freshness":"FRESH","line1":"1 53692U 22105AW  26263.94128994  .00026213  00000+0  84679-3 0  9990","line2":"2 53692  97.5939 154.4845 0002363  92.1767 267.9745 15.32084014223348","mean_motion":15.32084014,"eccentricity":0.0002363,"inclination_deg":97.5939,"raan_deg":154.4845,"arg_perigee_deg":92.1767,"mean_anomaly_deg":267.9745,"bstar":0.00084679,"rev_number":22334,"period_min":93.989623730909,"perigee_km":467.9773893918,"apogee_km":471.21362777536,"semimajor_km":6847.7325085836,"source":"CELESTRAK","updated_at":"2026-09-21T09:00:32.980831Z"}}